• In Czech Republic
  • List of Countries
  • For 7 days
  • Water Temperature
  • Satellite Maps
  • Weather Map
  • Weather Widgets
  • user-avatar
    Login

    Hourly Weather Pecs

    Today, 16 October, Tuesday

    Time Temperature Precipitation Wind Pressure Humidity
    00:00 +13°C° 0 mm 1 mps 747 mmHg 49%
    01:00 +13°C° 0 mm 1 mps 748 mmHg 50%
    02:00 +13°C° 0 mm 1 mps 747 mmHg 52%
    03:00 +12°C° 0 mm 1 mps 747 mmHg 53%
    04:00 +12°C° 0 mm 1 mps 747 mmHg 55%
    05:00 +12°C° 0 mm 1 mps 747 mmHg 55%
    06:00 +12°C° 0 mm 1 mps 747 mmHg 55%
    07:00 +13°C° 0 mm 1 mps 748 mmHg 51%
    08:00 +15°C° 0 mm 1 mps 748 mmHg 47%
    09:00 +18°C° 0 mm 1 mps 748 mmHg 42%
    10:00 +20°C° 0 mm 1 mps 748 mmHg 38%
    11:00 +21°C° 0 mm 1 mps 748 mmHg 36%
    12:00 +22°C° 0 mm 1 mps 748 mmHg 34%
    13:00 +24°C° 0 mm 2 mps 748 mmHg 32%
    14:00 +23°C° 0 mm 1 mps 747 mmHg 33%
    15:00 +23°C° 0 mm 1 mps 747 mmHg 35%
    16:00 +22°C° 0 mm 1 mps 747 mmHg 37%
    17:00 +21°C° 0 mm 1 mps 747 mmHg 39%
    18:00 +20°C° 0 mm 1 mps 747 mmHg 42%
    19:00 +19°C° 0 mm 1 mps 747 mmHg 44%
    20:00 +18°C° 0 mm 1 mps 747 mmHg 45%
    21:00 +16°C° 0 mm 1 mps 747 mmHg 46%
    22:00 +16°C° 0 mm 1 mps 747 mmHg 46%
    23:00 +15°C° 0 mm 1 mps 747 mmHg 47%

    Tomorrow, 17 October, Wednesday

    Time Temperature Precipitation Wind Pressure Humidity
    00:00 +15°C° 0 mm 1 mps 747 mmHg 47%
    01:00 +14°C° 0 mm 1 mps 747 mmHg 47%
    02:00 +14°C° 0 mm 1 mps 747 mmHg 47%
    03:00 +14°C° 0 mm 1 mps 747 mmHg 48%
    04:00 +13°C° 0 mm 1 mps 746 mmHg 48%
    05:00 +13°C° 0 mm 1 mps 746 mmHg 47%
    06:00 +13°C° 0 mm 1 mps 747 mmHg 47%
    07:00 +13°C° 0 mm 1 mps 747 mmHg 47%
    08:00 +15°C° 0 mm 2 mps 747 mmHg 41%
    09:00 +18°C° 0 mm 2 mps 747 mmHg 36%
    10:00 +20°C° 0 mm 2 mps 747 mmHg 30%
    11:00 +21°C° 0 mm 2 mps 747 mmHg 28%
    12:00 +23°C° 0 mm 2 mps 746 mmHg 26%
    13:00 +25°C° 0 mm 2 mps 746 mmHg 24%
    14:00 +24°C° 0 mm 2 mps 746 mmHg 26%
    15:00 +24°C° 0 mm 2 mps 745 mmHg 27%
    16:00 +23°C° 0 mm 1 mps 745 mmHg 28%
    17:00 +22°C° 0 mm 1 mps 745 mmHg 30%
    18:00 +20°C° 0 mm 1 mps 745 mmHg 32%
    19:00 +18°C° 0 mm 1 mps 745 mmHg 35%
    20:00 +16°C° 0 mm 1 mps 745 mmHg 36%
    21:00 +16°C° 0 mm 1 mps 745 mmHg 37%
    22:00 +15°C° 0 mm 1 mps 745 mmHg 38%
    23:00 +15°C° 0 mm 1 mps 745 mmHg 39%

    Day after tomorrow, 18 October, Thursday

    Time Temperature Precipitation Wind Pressure Humidity
    00:00 +14°C° 0 mm 1 mps 745 mmHg 41%
    01:00 +14°C° 0 mm 1 mps 745 mmHg 42%
    02:00 +14°C° 0 mm 1 mps 745 mmHg 45%
    03:00 +13°C° 0 mm 1 mps 745 mmHg 47%
    04:00 +13°C° 0 mm 1 mps 745 mmHg 50%
    05:00 +13°C° 0 mm 1 mps 745 mmHg 52%
    06:00 +13°C° 0 mm 1 mps 745 mmHg 54%
    07:00 +13°C° 0 mm 1 mps 745 mmHg 56%
    08:00 +15°C° 0 mm 1 mps 745 mmHg 51%
    09:00 +17°C° 0 mm 2 mps 745 mmHg 46%
    10:00 +19°C° 0 mm 2 mps 745 mmHg 41%
    11:00 +20°C° 0 mm 2 mps 745 mmHg 39%
    12:00 +23°C° 0 mm 2 mps 745 mmHg 36%
    13:00 +24°C° 0 mm 2 mps 745 mmHg 33%
    14:00 +23°C° 0 mm 1 mps 745 mmHg 35%
    15:00 +23°C° 0 mm 1 mps 744 mmHg 36%
    16:00 +22°C° 0 mm 1 mps 744 mmHg 38%
    17:00 +21°C° 0 mm 1 mps 744 mmHg 40%
    18:00 +20°C° 0 mm 1 mps 745 mmHg 43%
    19:00 +18°C° 0 mm 1 mps 745 mmHg 45%
    20:00 +18°C° 0 mm 1 mps 745 mmHg 46%
    21:00 +16°C° 0 mm 1 mps 745 mmHg 47%
    22:00 +16°C° 0 mm 1 mps 746 mmHg 47%
    23:00 +15°C° 0 mm 1 mps 746 mmHg 48%

    19 October, Friday

    Time Temperature Precipitation Wind Pressure Humidity
    00:00 +15°C° 0 mm 1 mps 746 mmHg 48%
    01:00 +15°C° 0 mm 1 mps 746 mmHg 49%
    02:00 +14°C° 0 mm 1 mps 746 mmHg 49%
    03:00 +14°C° 0 mm 1 mps 746 mmHg 49%
    04:00 +14°C° 0 mm 1 mps 746 mmHg 49%
    05:00 +14°C° 0 mm 1 mps 746 mmHg 50%
    06:00 +14°C° 0 mm 1 mps 746 mmHg 50%
    07:00 +14°C° 0 mm 1 mps 746 mmHg 50%
    08:00 +16°C° 0 mm 1 mps 747 mmHg 45%
    09:00 +19°C° 0 mm 1 mps 747 mmHg 40%
    10:00 +21°C° 0 mm 1 mps 747 mmHg 35%
    11:00 +22°C° 0 mm 1 mps 747 mmHg 33%
    12:00 +23°C° 0 mm 1 mps 747 mmHg 31%
    13:00 +24°C° 0 mm 1 mps 746 mmHg 29%
    14:00 +24°C° 0 mm 1 mps 746 mmHg 31%
    15:00 +23°C° 0 mm 1 mps 746 mmHg 33%
    16:00 +23°C° 0 mm 1 mps 746 mmHg 35%
    17:00 +21°C° 0 mm 1 mps 746 mmHg 39%
    18:00 +18°C° 0 mm 2 mps 747 mmHg 44%
    19:00 +17°C° 0 mm 2 mps 747 mmHg 48%
    20:00 +16°C° 0 mm 2 mps 747 mmHg 51%
    21:00 +15°C° 0 mm 1 mps 747 mmHg 54%
    22:00 +15°C° 0 mm 1 mps 747 mmHg 57%
    23:00 +14°C° 0 mm 1 mps 747 mmHg 60%

    20 October, Saturday

    Time Temperature Precipitation Wind Pressure Humidity
    00:00 +14°C° 0 mm 1 mps 748 mmHg 62%
    01:00 +13°C° 0 mm 1 mps 748 mmHg 65%
    02:00 +13°C° 0 mm 1 mps 748 mmHg 68%
    03:00 +12°C° 0 mm 1 mps 748 mmHg 70%
    04:00 +12°C° 0 mm 1 mps 748 mmHg 73%
    05:00 +12°C° 0 mm 1 mps 748 mmHg 74%
    06:00 +12°C° 0 mm 1 mps 748 mmHg 75%
    07:00 +12°C° 0 mm 1 mps 748 mmHg 76%
    08:00 +14°C° 0 mm 1 mps 748 mmHg 68%
    09:00 +16°C° 0 mm 1 mps 749 mmHg 60%
    10:00 +19°C° 0 mm 1 mps 749 mmHg 52%
    11:00 +19°C° 0 mm 2 mps 748 mmHg 48%
    12:00 +20°C° 0 mm 2 mps 748 mmHg 44%
    13:00 +21°C° 0 mm 2 mps 748 mmHg 40%
    14:00 +21°C° 0 mm 2 mps 748 mmHg 41%
    15:00 +21°C° 0 mm 2 mps 747 mmHg 42%
    16:00 +20°C° 0 mm 2 mps 747 mmHg 43%
    17:00 +19°C° 0 mm 2 mps 747 mmHg 48%
    18:00 +17°C° 0 mm 2 mps 747 mmHg 53%
    19:00 +15°C° 0 mm 2 mps 747 mmHg 58%
    20:00 +15°C° 0 mm 2 mps 747 mmHg 60%
    21:00 +14°C° 0 mm 2 mps 747 mmHg 63%
    22:00 +14°C° 0 mm 2 mps 747 mmHg 66%
    23:00 +13°C° 0.1 mm 3 mps 747 mmHg 69%

    21 October, Sunday

    Time Temperature Precipitation Wind Pressure Humidity
    00:00 +13°C° 0.1 mm 3 mps 747 mmHg 73%
    01:00 +12°C° 0.1 mm 4 mps 747 mmHg 77%
    02:00 +12°C° 1.1 mm 4 mps 747 mmHg 78%
    03:00 +11°C° 1.1 mm 4 mps 747 mmHg 79%
    04:00 +10°C° 1.1 mm 5 mps 747 mmHg 80%
    05:00 +9°C° 0.5 mm 5 mps 747 mmHg 76%
    06:00 +9°C° 0.5 mm 5 mps 747 mmHg 71%
    07:00 +8°C° 0.5 mm 5 mps 748 mmHg 66%
    08:00 +9°C° 0 mm 6 mps 748 mmHg 63%
    09:00 +9°C° 0 mm 6 mps 748 mmHg 60%
    10:00 +10°C° 0 mm 6 mps 748 mmHg 56%
    11:00 +10°C° 0 mm 6 mps 748 mmHg 56%
    12:00 +10°C° 0 mm 6 mps 748 mmHg 56%
    13:00 +12°C° 0 mm 5 mps 747 mmHg 56%
    14:00 +10°C° 0.1 mm 5 mps 747 mmHg 59%
    15:00 +11°C° 0.1 mm 4 mps 747 mmHg 62%
    16:00 +10°C° 0.1 mm 4 mps 747 mmHg 65%
    17:00 +10°C° 0.1 mm 3 mps 747 mmHg 68%
    18:00 +10°C° 0.1 mm 3 mps 747 mmHg 70%
    19:00 +9°C° 0.1 mm 3 mps 747 mmHg 73%
    20:00 +9°C° 0.1 mm 3 mps 748 mmHg 74%
    21:00 +9°C° 0.1 mm 3 mps 748 mmHg 74%
    22:00 +8°C° 0.1 mm 4 mps 748 mmHg 75%
    23:00 +8°C° 0 mm 4 mps 748 mmHg 74%
    Show more